Location: Banff
(51.1670°N, 115.5670°W)
Time: 22:55:16
(UTC-06:00)

Daily predictions for brighter satellites

Satellite Brightness Start Highest point End
(mag) Time Altitude Azimuth Time Altitude Azimuth Time Altitude Azimuth
Meteor 1-28 Rocket 3.9 19:51:54 10° NNE 19:55:19 32° E 19:58:41 10° SSE
COSMO-SKYMED 1 2.5 19:51:17 10° NNE 19:55:38 70° ESE 19:59:57 10° S
Helios 1B rocket 3.6 19:54:42 10° NE 19:57:56 22° E 20:01:10 10° SE
NOSS 0 Rocket 4.5 19:52:19 10° SW 19:58:28 65° NW 20:04:41 10° NNE
FREGAT/IRIS 2.8 19:55:39 10° SSE 19:58:40 51° ENE 20:01:42 10° N
CZ-2C R/B 4.3 19:54:12 10° SSW 19:58:40 36° W 20:03:04 10° NNW
Cosmos 2219 Rocket 3.3 19:53:27 10° SW 19:58:53 48° NW 20:04:24 10° NNE
FENGYUN 3A 4.4 19:55:35 10° SE 20:00:23 34° ENE 20:05:12 10° N
USA 215 4.4 19:55:40 10° ENE 20:00:24 21° SE 20:05:06 10° S
Cosmos 1346 3.7 20:00:05 10° N 20:02:53 35° ENE 20:05:39 10° SE
Nadezhda 4 Rocket 4.3 19:59:14 10° N 20:05:20 48° ENE 20:11:20 10° SSE
H-2A R/B 4.0 20:04:28 10° ESE 20:07:34 23° ENE 20:10:40 10° NNE
CZ-4B DEB 4.0 20:06:00 10° ESE 20:08:40 24° ENE 20:11:22 10° N
Cosmos 1805 3.8 20:06:07 10° SSE 20:09:46 38° E 20:13:27 10° NNE
Aureole 2 Rocket 2.9 20:05:36 10° SSW 20:09:58 88° ESE 20:14:09 10° NNE
Lacrosse 4 Rocket 4.3 20:10:16 10° NNW 20:10:49 10° NNW 20:11:22 10° N
Cosmos 1076 Rocket 3.7 20:08:47 10° NNW 20:13:08 81° W 20:17:29 10° S
Meteor 1-29 4.2 20:10:24 10° NE 20:13:15 22° E 20:16:04 10° SSE
Cosmos 1766 Rocket 3.5 20:09:03 10° N 20:13:28 86° E 20:17:49 10° S
Cosmos 1092 Rocket 4.4 20:08:27 10° N 20:14:21 42° ENE 20:20:10 10° SE
Cosmos 1072 Rocket 4.4 20:10:06 10° S 20:16:11 77° E 20:22:20 10° NNE
Cosmos 1943 Rocket 3.2 20:11:58 10° NNW 20:16:54 29° NE 20:21:09 13° E
ATLAS 3B R/B 3.7 20:10:01 10° WSW 20:17:20 50° NNW 20:24:21 10° NE
Cosmos 1953 2.5 20:13:50 10° SSE 20:17:39 47° E 20:21:30 10° NNE
ERS-1 Rocket 4.5 20:15:36 12° E 20:18:39 19° NE 20:22:06 10° NNE
Cosmos 2369 Rocket 2.4 20:15:42 10° NNW 20:21:15 54° NE 20:26:49 10° SE
Cosmos 2058 4.5 20:19:38 10° NNE 20:22:29 18° ENE 20:24:08 15° E
H-2A R/B 4.3 20:24:00 10° NE 20:24:28 10° NE 20:24:55 10° NE
NOAA 12 4.4 20:20:26 10° S 20:25:41 73° WSW 20:31:01 10° NNW
Cosmos 2151 4.0 20:22:20 10° N 20:25:56 26° ENE 20:28:44 14° ESE
Cosmos-2242 3.1 20:22:49 10° S 20:27:05 54° E 20:31:24 10° NNE
Cosmos 1943 4.2 20:23:45 10° SSE 20:27:58 22° ESE 20:32:11 10° NE
Meteor 1-22 Rocket 4.5 20:25:06 10° SSW 20:30:23 68° WNW 20:35:42 10° N
Cosmos 1733 4.3 20:28:59 10° SE 20:32:07 24° E 20:35:15 10° NE
Cosmos 2221 4.4 20:34:05 13° ENE 20:34:05 13° ENE 20:35:19 10° NE
Cosmos 1452 Rocket 4.5 20:28:36 10° NNW 20:33:41 50° WSW 20:38:45 10° S
Cosmos 1603 3.9 20:28:25 10° S 20:33:56 50° ESE 20:39:29 10° NE
Cosmos 1470 3.5 20:30:58 10° SSE 20:34:21 29° E 20:37:46 10° NNE
ATLAS CENTAUR R/B 4.2 20:29:03 10° SSW 20:35:02 65° SE 20:54:52 10° NE
Cosmos 1674 2.8 20:32:32 10° N 20:36:23 57° ENE 20:40:13 10° SSE
NOSS 3-2 (A) 3.6 20:33:40 10° SW 20:39:53 88° SE 20:46:48 10° NE
ASTEX 1 3.7 20:36:31 10° NNE 20:41:14 44° E 20:45:54 10° SSE
Cosmos 1500 Rocket 3.5 20:41:35 10° N 20:46:02 70° E 20:50:27 10° SSE
USA 238 DEB 4.4 20:41:15 10° WSW 20:48:10 55° NW 20:55:05 10° NE
USA 238 4.4 20:41:20 10° WSW 20:48:15 55° NW 20:55:11 10° NE
Cosmos 2333 Rocket 4.1 20:46:12 10° WSW 20:51:18 31° NW 20:56:24 10° NNE
Cosmos 2034 Rocket 4.1 20:45:00 10° S 20:51:19 87° WNW 20:57:43 10° N
Cosmos 1842 Rocket 3.7 20:47:31 10° SSE 20:51:41 48° E 20:55:55 10° NNE
Cosmos 1464 Rocket 4.4 20:45:34 10° SSW 20:51:45 68° WNW 20:57:56 10° N
BREEZE-M DEB (TANK) 4.2 20:39:14 10° W 20:54:10 59° SSW 20:57:17 23° ESE
Cosmos 1331 Rocket 4.3 20:49:20 10° NNW 20:54:31 50° ENE 20:57:38 23° SE
Cosmos 839 Rocket 4.4 20:46:27 10° NW 20:54:44 89° NE 21:00:25 15° SE
ERBS 2.4 20:51:48 10° WNW 20:55:18 66° NNE 20:56:38 34° E
Cosmos 468 4.4 20:51:33 10° SSW 20:56:47 78° ESE 21:02:02 10° NNE
ISS -1.5 20:58:36 10° SSW 21:00:07 18° S 21:00:07 18° S
USA 186 1.8 21:01:55 39° NNE 21:01:55 39° NNE 21:03:44 10° N
Cosmos 1758 3.9 20:57:34 10° SSW 21:01:37 60° WNW 21:05:43 10° N
CZ-4C R/B 3.5 20:56:22 10° W 21:01:47 43° NNW 21:07:58 10° NE
SPOT 5 4.2 21:02:32 18° ENE 21:02:38 18° ENE 21:05:37 10° NNE
ATLAS 5 CENTAUR R/B 1.9 20:58:50 10° SW 21:03:45 86° NW 21:09:11 10° NE
ALOS 2.4 21:00:54 10° S 21:05:35 78° WSW 21:10:18 10° NNW
Cosmos 724 4.3 20:59:51 10° SSW 21:05:50 80° SE 21:12:00 10° NE
Helios 1A 4.0 21:02:01 10° S 21:06:06 47° W 21:10:13 10° NNW
CENTAUR R/B 2.9 21:02:30 10° S 21:08:14 41° ESE 21:14:38 10° NE
Cosmos 1544 3.4 21:04:47 10° SSW 21:08:30 70° W 21:12:16 10° N
Cosmos 2237 Rocket 4.2 21:04:18 10° W 21:09:08 28° NW 21:13:59 10° NNE
Meteor 1-11 4.3 21:05:27 10° N 21:11:13 61° ENE 21:14:58 22° SSE
Cosmos 1626 4.3 21:09:21 10° NNE 21:10:29 14° NE 21:10:29 14° NE
Exosat Rocket 4.4 21:10:19 10° NNW 21:16:40 84° ENE 21:24:22 15° SSE
Cosmos 482 Debris 3.4 21:14:32 10° WNW 21:16:54 80° N 21:17:02 77° NE
Cosmos 1627 Rocket 4.4 21:10:45 10° N 21:16:58 74° ENE 21:22:30 14° SSE
Cosmos 1048 Rocket 3.9 21:12:41 10° SSW 21:17:58 79° ESE 21:23:13 10° NNE
NOSS 3-2 (C) 3.8 21:13:28 10° SW 21:19:43 72° NW 21:26:41 10° NE
SL-8 R/B 4.3 21:15:35 10° SW 21:19:56 36° SSE 21:20:21 35° SE
Cosmos 1269 Rocket 4.0 21:16:00 10° SSW 21:21:17 87° WNW 21:26:37 10° NNE
Cosmos 1656 Rocket 4.3 21:16:16 10° NNW 21:21:20 38° NE 21:22:45 32° E
Cosmos 1328 3.7 21:17:36 10° N 21:21:36 90° NNE 21:23:26 31° S
Resurs 01 Rocket 3.5 21:19:21 10° SSW 21:23:20 31° W 21:27:20 10° NNW
Envisat 3.2 21:22:48 38° ESE 21:24:14 49° ENE 21:29:08 10° N
SL-14 R/B 3.2 21:23:16 10° N 21:27:18 66° ENE 21:27:52 57° ESE
CZ-4 DEB 4.2 21:28:56 26° NNE 21:28:56 26° NNE 21:30:37 10° N
ARGOS 4.4 21:28:42 25° ENE 21:28:59 25° ENE 21:33:19 10° N
CZ-2D R/B 4.1 21:26:23 14° S 21:29:37 50° W 21:33:26 10° NNW
SL-16 R/B 3.8 21:25:24 10° WSW 21:30:38 36° NW 21:35:53 10° NNE
Cosmos 1939 Rocket 3.0 21:32:59 53° ENE 21:32:59 53° ENE 21:36:42 10° N
Sich 1 3.5 21:28:41 10° N 21:32:34 42° ENE 21:32:34 42° ENE
Helios 1B rocket 3.6 21:29:32 10° N 21:33:29 44° WNW 21:37:23 10° SW
Cosmos 158 Rocket 3.7 21:30:52 10° SSW 21:35:42 69° ESE 21:40:36 10° NNE
H-2A R/B 3.8 21:41:40 17° NE 21:41:40 17° NE 21:44:29 10° NNE
H-2A R/B 4.1 21:38:39 14° SSW 21:41:43 38° W 21:45:22 10° NNW
GP-B 3.3 21:38:08 10° N 21:42:36 72° W 21:45:35 20° SSW
USA 215 3.2 21:40:32 26° ENE 21:44:20 63° SE 21:50:48 10° SW
SeaSat 1 4.4 21:42:14 10° NE 21:43:06 15° NE 21:43:06 15° NE
Cosmos 1980 Rocket 4.4 21:48:26 10° N 21:50:59 13° NNE 21:53:11 11° NE
Lacrosse 4 Rocket 4.1 21:50:36 10° N 21:51:41 11° NNE 21:52:47 10° NNE
ERS-1 Rocket 2.9 21:55:37 53° S 21:56:50 83° WSW 22:01:54 10° NNW
Terra 3.9 21:58:12 15° NE 21:58:12 15° NE 21:59:55 10° NNE
Cosmos 2279 Rocket 3.8 21:54:11 30° S 21:57:26 74° E 22:03:39 10° NNE
Cosmos 1805 Rocket 3.6 21:53:18 10° NNW 21:57:46 76° W 21:58:09 70° SSW
SJ-11-01 4.4 21:56:38 49° SSW 21:57:47 71° WSW 22:02:30 10° NNW
H-2A R/B 2.7 22:00:19 48° NNE 22:00:19 48° NNE 22:03:57 10° N
Cosmos 2058 3.5 21:55:46 10° NNW 21:59:48 55° W 22:00:24 50° SW
Cosmos 1943 Rocket 2.3 21:55:32 10° NW 22:01:09 68° WSW 22:02:42 47° S
Cosmos 2151 4.4 21:59:27 10° NNW 22:03:21 36° W 22:05:22 22° SW
SPOT 1/Viking Rocket 4.3 22:04:45 39° NE 22:04:45 39° NE 22:08:51 10° N
Cosmos 2369 Rocket 3.7 22:00:07 10° NW 22:05:03 32° WSW 22:09:00 15° SSW
Cosmos 1655 Rocket 4.3 22:00:33 10° NNW 22:06:44 64° W 22:10:29 24° SSW
Gbstr 26 Del rocket 4.4 22:02:14 10° SW 22:05:03 34° SSW 22:05:03 34° SSW
ATLAS 3B R/B 4.3 22:03:16 10° WNW 22:09:42 30° N 22:15:10 13° NE
Cosmos 2266 Rocket 3.9 22:03:25 10° N 22:09:45 62° ENE 22:10:11 61° E
Cosmos 2221 3.0 22:10:54 57° NNW 22:10:54 57° NNW 22:14:28 10° N
Cosmos 1633 Rocket 3.4 22:05:50 10° N 22:09:23 57° N 22:09:23 57° N
MetOp-B 4.1 22:11:14 66° ENE 22:11:14 66° ENE 22:16:25 10° N
Cosmos 1943 3.3 22:05:49 10° SW 22:11:27 74° WNW 22:17:07 10° NNE
Cosmos 1703 4.4 22:09:07 10° NNW 22:11:44 40° NNW 22:11:44 40° NNW
Aureole 3 4.2 22:06:56 10° NNW 22:13:28 83° W 22:14:18 65° S
Cosmos 2251 Rocket 3.6 22:25:11 70° N 22:25:11 70° N 22:29:57 10° NNE
UNK 4.4 22:17:33 10° WNW 22:34:18 59° SSW 22:34:57 57° S
SPOT 5 3.9 22:41:47 39° NW 22:41:47 39° NW 22:44:38 10° NNW
Cosmos 2322 Rocket 4.5 22:43:39 10° N 22:46:23 13° NNE 22:47:39 13° NE
ATLAS 5 CENTAUR R/B 3.7 22:44:39 10° W 22:49:11 30° NNW 22:52:34 17° NNE
CZ-4C R/B 4.2 22:46:43 10° WNW 22:51:57 28° N 22:55:50 17° NE
Cosmos 1697 Rocket 4.2 22:53:00 10° NNW 22:56:48 27° NNE 22:56:48 27° NNE
CENTAUR R/B 3.0 22:52:20 10° WSW 22:58:40 62° NW 23:05:53 10° NE
ARGOS 4.0 23:10:13 48° NW 23:10:13 48° NW 23:14:15 10° NNW
H-2A R/B 3.5 23:22:19 32° NNW 23:22:19 32° NNW 23:25:04 10° NNW
SeaSat 1 4.2 23:19:58 10° NNE 23:22:49 28° N 23:22:49 28° N
USA 215 3.5 23:27:56 65° NW 23:27:56 65° NW 23:33:54 10° W
Lacrosse 4 Rocket 4.2 23:28:12 10° NNW 23:29:26 16° N 23:29:26 16° N
Terra 4.0 23:37:06 23° NNW 23:37:06 23° NNW 23:38:51 10° NNW
Cosmos 1980 Rocket 3.9 23:31:42 10° NNW 23:34:56 27° N 23:34:56 27° N
